Погода во Флорида Сити

США     25°27′05″N   80°28′56″W
темп.,
°C
ветер,
м/с
пор.,
м/с
влажн.,
%
обл.,
%
осадки,
мм/ч
давл.,
гПа
погр.,
м
20 апреля, вт
вт2023:00+25юз34755 0.7 101594
02:00+25ююз25785 1.6 1014142
05:00+25ююз498126 0.1 1013366
08:00+26юз488029 1.0 1015608
11:00+31ююз78495 0.0 10161564
14:00+32ююз9114165 0.0 10151757
17:00+31юз81045100 0.0 10131670
20:00+28зюз4756100 0.0 1014365
21 апреля, ср
ср2123:00+26юз2671100 0.0 1016230
02:00+25юз247969 0.3 101591
05:00+23юз37869 1.3 1015184
08:00+25з2480100 1.6 1016175
11:00+29з5657100 0.1 10171515
14:00+32з7841100 0.2 10152239
17:00+30з7748100 0.0 10151573
20:00+25зсз5672100 0.0 1016510
22 апреля, чт
чт2223:00+24зсз5973100 0.0 1018438
02:00+23сз266462 0.0 1017309
05:00+21сз366252 0.0 1016199
08:00+21ссз35565 0.0 1018204
11:00+27ссв335151 0.0 1019715
14:00+28всв435225 0.1 10171405
17:00+27всв556242 1.4 1016819
20:00+24всв35752 3.8 1018174
23 апреля, пт
пт2323:00+23всв48782 0.1 1019353
02:00+24всв5871100 0.1 1018409
05:00+24всв5973100 0.0 1017577
08:00+24всв6875100 0.1 1019717
11:00+27в776293 0.2 10201289
14:00+27в776199 0.4 10191376
17:00+26в7764100 0.3 10171263
20:00+25в587228 0.4 1018596
24 апреля, сб
сб2423:00+24в59776 0.0 1018395
02:00+23вюв49785 0.1 1017276
05:00+23вюв498085 0.0 1015297
08:00+25юв577294 0.1 1016985
11:00+28юв785996 0.2 10171391
14:00+29юв7757100 0.4 10161605
17:00+29ююв6753100 0.1 10141451
20:00+25юв367395 0.1 1015187